Location: Владивосток
(43.1151°N, 131.8856°E)
Time: 19:41:44
(UTC+10:00)

Cosmos 1023 Rocket - Visible Passes

Search period start: 06 October 2024 00:00
Search period end: 16 October 2024 00:00
Orbit: 732 x 770 km, 74.1° (Epoch: 05 October)

Date Brightness Start Highest point End Pass type
(mag) Time Alt. Az. Time Alt. Az. Time Alt. Az.
11 Oct 7.4 06:27:18 10° NNE 06:29:09 12° NE 06:30:59 10° ENE visible
13 Oct 6.9 06:42:58 10° N 06:47:07 23° ENE 06:51:14 10° ESE visible
14 Oct 7.3 06:01:54 10° NNE 06:04:31 14° NE 06:07:07 10° E visible
